Location: Wonder Lake State Park
(41.4960°N, 73.6562°W)
Time: 02:18:21
(UTC-04:00)

Daily predictions for brighter satellites

Satellite Brightness Start Highest point End
(mag) Time Altitude Azimuth Time Altitude Azimuth Time Altitude Azimuth
Cosmos 2333 Rocket 3.6 00:07:43 32° NW 00:07:43 32° NW 00:12:45 10° N
COSMOS 2455 3.7 00:02:04 10° NNW 00:06:25 45° N 00:06:25 45° N
Terra 4.4 00:12:27 14° WNW 00:12:27 14° WNW 00:13:42 10° NW
Cosmos 2237 Rocket 3.7 00:27:23 31° NW 00:27:23 31° NW 00:31:42 10° N
Cosmos 2369 Rocket 4.0 00:24:55 10° N 00:28:53 24° NE 00:28:53 24° NE
Mayak 1.7 01:11:08 10° N 01:11:52 15° N 01:11:52 15° N
CENTAUR R/B 4.0 01:12:30 10° NW 01:17:31 35° WNW 01:17:31 35° WNW
USA 215 3.7 01:31:04 53° NNW 01:31:04 53° NNW 01:35:58 10° NW
SL-16 R/B 4.1 01:35:36 23° NW 01:35:36 23° NW 01:39:28 10° N
ADEOS Rocket 4.5 01:39:06 10° NE 01:42:16 25° ENE 01:42:16 25° ENE
SL-16 R/B 4.4 01:48:12 18° E 01:50:45 23° ENE 01:55:24 10° NNE
Cosmos 1943 Rocket 3.4 01:48:55 10° NNW 01:52:18 37° N 01:52:18 37° N
CZ-2D R/B 4.2 02:02:43 10° NE 02:05:56 18° E 02:05:56 18° E
Cosmos 2369 Rocket 3.9 02:08:20 10° NNW 02:10:38 24° NW 02:10:38 24° NW
Cosmos 1943 4.2 02:26:52 39° NNW 02:26:52 39° NNW 02:31:04 10° NNE
Cosmos 2098 Rocket 3.9 02:52:43 66° NE 02:52:43 66° NE 02:56:58 10° N
Cosmos 2285 Rocket 4.4 02:58:36 49° SE 02:59:25 51° ESE 03:05:35 10° NNE
Cosmos 1125 Rocket 4.1 02:56:23 10° NNW 03:00:09 48° NNW 03:00:09 48° NNW
Lacrosse 5 4.1 03:00:36 10° NNW 03:04:41 24° NNE 03:08:45 10° E
Sich 1 4.5 03:04:13 10° N 03:08:11 33° ENE 03:08:38 32° E
USA 229 DEB 3.7 03:01:07 10° NW 03:08:19 85° NE 03:15:40 10° SE
USA 229 3.8 03:01:13 10° NW 03:08:26 85° NE 03:15:46 10° SE
NPP 3.9 03:04:35 10° N 03:09:18 58° NW 03:09:18 58° NW
IRS-1C 4.1 03:04:40 10° NNE 03:09:39 77° N 03:09:39 77° N
BREEZE M DEB (TANK) 3.4 03:10:47 50° ENE 03:10:47 50° ENE 03:17:10 10° ESE
Cosmos 1400 Rocket 4.4 03:09:25 10° N 03:11:35 31° N 03:11:35 31° N
COSMOS 2406 3.0 03:25:16 79° WSW 03:25:33 83° WNW 03:31:18 10° NNE
Cosmos 2123 Rocket 3.8 03:19:39 10° NNW 03:25:53 69° W 03:26:21 67° WSW
Cosmos 1821 Rocket 4.4 03:26:21 45° WNW 03:26:21 45° WNW 03:32:15 10° N
Resurs 1-4 Rocket 1.9 03:24:05 10° N 03:29:21 80° WNW 03:29:32 79° WSW
ADEOS Rocket 3.5 03:24:24 10° N 03:29:13 37° WNW 03:29:13 37° WNW
SL-16 R/B 2.5 03:33:19 60° SW 03:33:52 62° WSW 03:40:02 10° NNW
Cosmos 1934 Rocket 4.2 03:37:07 47° W 03:37:22 47° WNW 03:43:13 10° N
Cosmos 1633 Rocket 3.5 03:35:21 10° N 03:39:40 59° E 03:40:27 50° SE
Cosmos 2228 Rocket 4.4 03:39:27 27° SE 03:41:05 36° E 03:45:10 10° NNE
ARIANE 5 R/B 2.4 03:36:08 10° N 03:41:22 75° WNW 03:41:55 68° WSW
NOSS 3-1 (C) 4.2 03:34:23 10° NNW 03:42:00 75° NE 03:50:23 10° SE
Cosmos 1300 3.2 03:43:27 58° E 03:43:27 58° E 03:47:03 10° NNE
CZ-2D R/B 2.2 03:41:28 10° N 03:46:44 57° WNW 03:47:15 55° W
Cosmos 1605 Rocket 4.3 03:53:59 44° WSW 03:55:21 52° WNW 04:01:36 10° N
SL-27 R/B 3.2 03:58:50 43° NNW 03:58:50 43° NNW 04:01:25 10° N
Cosmos 1328 Rocket 3.6 04:00:51 46° SSE 04:02:01 72° E 04:06:22 10° NNE
Cosmos 2061 Rocket 4.3 03:58:52 19° S 04:03:36 67° E 04:09:58 10° NNE
Cosmos 2221 4.1 04:07:30 22° WNW 04:07:30 22° WNW 04:10:15 10° NNW
MOS 1 Rocket 3.7 04:03:07 10° N 04:07:11 39° WNW 04:07:17 39° WNW
IRS-1D 4.2 04:04:57 10° N 04:09:39 36° WNW 04:10:29 34° W
Cosmos 2082 Rocket 3.3 04:07:33 15° SSE 04:11:43 39° ESE 04:16:55 10° NE
Cosmos 773 Rocket 4.0 04:10:42 36° SSW 04:12:57 86° ESE 04:18:17 10° NNE
Cosmos 1666 Rocket 3.9 04:10:12 10° NNW 04:14:26 45° W 04:14:34 45° W
Cosmos 2016 Rocket 4.3 04:09:12 13° S 04:14:37 64° E 04:20:39 10° NNE
ADEOS II 2.9 04:11:16 10° NNE 04:16:22 49° E 04:21:15 11° S
Cosmos 1315 Rocket 3.6 04:15:30 10° NNW 04:18:35 34° WNW 04:18:35 34° WNW
Cosmos 1726 3.3 04:22:36 28° WNW 04:22:36 28° WNW 04:25:25 10° NNW
Cosmos 1933 Rocket 3.6 04:18:49 10° N 04:23:19 80° E 04:27:44 10° S
PSLV R/B 3.1 04:25:14 60° S 04:25:14 60° S 04:28:17 10° ESE
ADEOS 4.4 04:22:06 10° N 04:26:46 34° WNW 04:28:18 28° W
COSMOS 2487 3.4 04:25:53 23° SSE 04:27:43 45° ESE 04:31:08 10° NNE
Meteor 2-3 Rocket 4.0 04:24:15 10° N 04:29:54 71° E 04:35:35 10° SSE
Tiangong 2 1.7 04:30:19 41° S 04:30:37 42° SSE 04:33:42 10° E
Cosmos 1151 Rocket 3.0 04:28:07 23° S 04:30:44 85° E 04:35:01 10° N
Cosmos 2100 Rocket 4.1 04:29:51 23° SSW 04:33:54 61° W 04:40:13 10° N
Cosmos 1802 Rocket 3.9 04:29:14 18° SSW 04:34:01 76° W 04:40:21 10° N
PSLV R/B 4.4 04:31:43 10° NNE 04:35:49 60° E 04:39:31 12° S
CZ-2D R/B 4.3 04:37:18 10° N 04:40:50 30° WNW 04:41:45 27° W
Cosmos 2369 3.6 04:35:38 10° NNW 04:41:19 81° WSW 04:46:57 10° SSE
Cosmos 1656 3.8 04:35:46 10° NNW 04:41:31 80° ENE 04:47:12 10° SSE
Cosmos 1892 2.6 04:38:04 10° N 04:41:56 89° WSW 04:45:46 10° S
Okean O Rocket 2.4 04:37:52 10° NNE 04:42:11 51° E 04:46:27 10° S
UNKNOWN OBJECT B 4.1 04:39:35 10° NNW 04:43:00 26° WNW 04:43:54 24° W
Shenzhou-11 Module 2.0 04:43:41 42° SW 04:44:33 69° SSE 04:47:38 10° E
Sich 1 4.4 04:42:25 10° NW 04:45:34 20° W 04:45:34 20° W
In-Cosmos 22 Rocket 4.3 04:41:06 10° NNW 04:46:13 46° W 04:51:07 11° SSW
Cosmos 192 4.3 04:43:48 16° SSW 04:47:43 88° ESE 04:52:42 10° NNE
Lacrosse 5 1.8 04:43:09 10° NW 04:48:15 90° NNE 04:53:20 10° SE
Cosmos 1825 4.4 04:48:42 10° NNE 04:52:04 29° ENE 04:55:24 10° SE
Tsikada Rocket 4.1 04:47:44 10° N 04:54:05 83° E 05:00:29 10° S
Hubble Space Telescope 2.8 04:53:56 13° SSW 04:54:38 13° S 04:56:39 10° SSE
Meteor 1-27 4.2 04:50:57 11° SSW 04:56:19 68° WNW 05:01:54 10° N
Cosmos 2173 Rocket 4.4 04:52:39 17° SW 04:57:11 43° WNW 05:03:14 10° N
ATLAS 2AS CENTAUR R/B 4.3 04:50:13 10° NNW 04:57:51 43° NE 05:04:59 10° ESE
CZ-4B R/B 3.1 04:56:46 10° N 05:01:15 80° WNW 05:05:46 10° SSW
NOSS 3-1 (A) 4.2 04:56:52 10° NW 05:04:21 53° WSW 05:12:29 10° S
Cosmos 1833 Rocket 2.7 05:01:07 12° SSW 05:06:23 76° WNW 05:12:04 10° NNE
Cosmos 1470 Rocket 4.4 05:03:13 10° NNW 05:06:55 28° W 05:10:11 12° SW
Resurs 1-4 Rocket 4.1 05:06:54 10° NW 05:08:19 11° WNW 05:09:43 10° WNW
Cosmos 923 Rocket 4.4 05:08:51 13° SW 05:13:14 48° WNW 05:18:20 10° N
Cosmos 1980 Rocket 2.6 05:17:00 10° NNW 05:22:37 71° ENE 05:28:13 10° SSE
USA 234 4.2 05:21:38 10° ENE 05:27:53 45° SE 05:34:04 10° SSW
Cosmos 1869 Rocket 3.6 05:24:35 10° NNW 05:29:03 69° W 05:33:27 10° S
Cosmos 2278 4.4 05:25:09 10° NW 05:30:06 32° WSW 05:35:01 10° SSW
Cosmos 1680 Rocket 4.0 05:26:30 10° SW 05:31:32 43° WNW 05:36:37 10° N
IRS-1C Rocket 4.1 05:26:23 10° N 05:31:38 71° WNW 05:36:52 10° SSW
Timation 2 Rocket 4.0 05:26:07 10° SSW 05:32:06 81° ESE 05:38:16 10° NNE
Cosmos 1455 3.3 05:31:46 10° SW 05:34:58 26° WNW 05:38:11 10° NNW
Cosmos 2084 3.3 05:31:34 10° SW 05:35:36 69° NW 05:39:29 10° NNE
Cosmos 1697 Rocket 2.9 05:31:58 10° NNW 05:37:28 52° WSW 05:42:55 10° S
Meteor 1-28 Rocket 4.3 05:36:33 10° SSE 05:40:10 50° ENE 05:43:48 10° N
Cosmos 1900 4.4 05:35:44 10° SW 05:40:46 77° WNW 05:45:55 10° NNE
EO 1 Del DPAF 3.3 05:37:13 10° SSE 05:41:03 87° ENE 05:44:55 10° NNW
